Location: Louisville
(33.0010°N, 82.4110°W)
Time: 12:43:21
(UTC-05:00)

OTV 5 (USA 277) - Visible Passes

Search period start: 12 November 2018 00:00
Search period end: 22 November 2018 00:00
Orbit: 335 x 353 km, 54.6° (Epoch: 08 November)

Date Brightness Start Highest point End Pass type
(mag) Time Alt. Az. Time Alt. Az. Time Alt. Az.
12 Nov ? 18:55:17 10° NNW 18:57:10 32° N 18:57:10 32° N visible
13 Nov ? 19:19:03 10° WNW 19:21:10 29° WSW 19:21:10 29° WSW visible
14 Nov ? 18:07:44 10° NNW 18:10:34 45° NE 18:13:25 10° ESE visible
15 Nov ? 18:31:27 10° WNW 18:34:10 34° SW 18:36:51 10° SSE visible
21 Nov ? 06:34:57 10° SE 06:35:59 11° ESE 06:37:00 10° ESE visible
